• In Germany
  • List of Countries
  • For 7 days
  • Water Temperature
  • Satellite Maps
  • Weather Map
  • Weather Widgets
  • user-avatar
    Login

    Hourly Weather Biskira

    Today, 22 July, Saturday

    Time Temperature Precipitation Wind Pressure Humidity
    00:00 +42°C° 0 mm 3 mps 749 mmHg 18%
    01:00 +41°C° 0.1 mm 4 mps 749 mmHg 19%
    02:00 +40°C° 0.1 mm 4 mps 749 mmHg 20%
    03:00 +39°C° 0.1 mm 5 mps 749 mmHg 21%
    04:00 +39°C° 0 mm 5 mps 750 mmHg 23%
    05:00 +39°C° 0 mm 5 mps 750 mmHg 25%
    06:00 +39°C° 0 mm 6 mps 751 mmHg 26%
    07:00 +40°C° 0 mm 6 mps 751 mmHg 24%
    08:00 +42°C° 0 mm 6 mps 751 mmHg 22%
    09:00 +44°C° 0 mm 6 mps 751 mmHg 19%
    10:00 +45°C° 0 mm 5 mps 751 mmHg 17%
    11:00 +46°C° 0 mm 5 mps 751 mmHg 15%
    12:00 +48°C° 0 mm 4 mps 751 mmHg 13%
    13:00 +48°C° 0 mm 4 mps 751 mmHg 12%
    14:00 +49°C° 0 mm 4 mps 751 mmHg 11%
    15:00 +50°C° 0 mm 4 mps 750 mmHg 11%
    16:00 +49°C° 0 mm 4 mps 750 mmHg 11%
    17:00 +49°C° 0 mm 4 mps 750 mmHg 11%
    18:00 +49°C° 0 mm 4 mps 751 mmHg 11%
    19:00 +46°C° 0.1 mm 3 mps 751 mmHg 13%
    20:00 +45°C° 0.1 mm 3 mps 752 mmHg 14%
    21:00 +42°C° 0.1 mm 2 mps 753 mmHg 16%
    22:00 +43°C° 0.1 mm 3 mps 753 mmHg 17%
    23:00 +43°C° 0.1 mm 3 mps 753 mmHg 17%

    Tomorrow, 23 July, Sunday

    Time Temperature Precipitation Wind Pressure Humidity
    00:00 +42°C° 0.1 mm 4 mps 754 mmHg 18%
    01:00 +42°C° 0.1 mm 3 mps 754 mmHg 19%
    02:00 +40°C° 0.1 mm 3 mps 753 mmHg 20%
    03:00 +39°C° 0.1 mm 3 mps 753 mmHg 21%
    04:00 +39°C° 0.1 mm 3 mps 754 mmHg 22%
    05:00 +39°C° 0.1 mm 3 mps 754 mmHg 22%
    06:00 +39°C° 0.1 mm 3 mps 754 mmHg 22%
    07:00 +42°C° 0 mm 3 mps 754 mmHg 20%
    08:00 +43°C° 0 mm 4 mps 754 mmHg 18%
    09:00 +45°C° 0 mm 4 mps 754 mmHg 16%
    10:00 +47°C° 0 mm 4 mps 754 mmHg 14%
    11:00 +48°C° 0 mm 4 mps 754 mmHg 13%
    12:00 +49°C° 0 mm 4 mps 754 mmHg 12%
    13:00 +49°C° 0 mm 4 mps 753 mmHg 11%
    14:00 +49°C° 0 mm 4 mps 753 mmHg 11%
    15:00 +50°C° 0 mm 4 mps 752 mmHg 10%
    16:00 +48°C° 0 mm 3 mps 752 mmHg 10%
    17:00 +48°C° 0 mm 3 mps 752 mmHg 11%
    18:00 +48°C° 0 mm 2 mps 751 mmHg 11%
    19:00 +47°C° 0 mm 3 mps 752 mmHg 12%
    20:00 +46°C° 0 mm 3 mps 752 mmHg 13%
    21:00 +45°C° 0 mm 3 mps 753 mmHg 14%
    22:00 +44°C° 0 mm 3 mps 753 mmHg 14%
    23:00 +42°C° 0 mm 2 mps 753 mmHg 15%

    Day after tomorrow, 24 July, Monday

    Time Temperature Precipitation Wind Pressure Humidity
    00:00 +42°C° 0 mm 2 mps 753 mmHg 16%
    01:00 +41°C° 0 mm 2 mps 752 mmHg 18%
    02:00 +42°C° 0 mm 3 mps 752 mmHg 19%
    03:00 +40°C° 0 mm 3 mps 751 mmHg 20%
    04:00 +40°C° 0 mm 3 mps 751 mmHg 21%
    05:00 +40°C° 0 mm 3 mps 751 mmHg 22%
    06:00 +41°C° 0 mm 4 mps 751 mmHg 22%
    07:00 +42°C° 0 mm 4 mps 751 mmHg 20%
    08:00 +43°C° 0 mm 4 mps 751 mmHg 18%
    09:00 +46°C° 0 mm 5 mps 751 mmHg 16%
    10:00 +47°C° 0 mm 5 mps 750 mmHg 14%
    11:00 +48°C° 0 mm 5 mps 750 mmHg 13%
    12:00 +49°C° 0 mm 5 mps 750 mmHg 11%
    13:00 +51°C° 0 mm 6 mps 749 mmHg 10%
    14:00 +51°C° 0 mm 7 mps 748 mmHg 9%
    15:00 +52°C° 0 mm 8 mps 748 mmHg 8%
    16:00 +51°C° 0 mm 8 mps 748 mmHg 10%
    17:00 +50°C° 0 mm 8 mps 748 mmHg 11%
    18:00 +49°C° 0 mm 8 mps 748 mmHg 13%
    19:00 +47°C° 0 mm 7 mps 748 mmHg 17%
    20:00 +45°C° 0 mm 6 mps 749 mmHg 20%
    21:00 +43°C° 0 mm 5 mps 749 mmHg 24%
    22:00 +42°C° 0 mm 5 mps 749 mmHg 28%
    23:00 +41°C° 0 mm 4 mps 749 mmHg 32%

    25 July, Tuesday

    Time Temperature Precipitation Wind Pressure Humidity
    00:00 +38°C° 0 mm 4 mps 749 mmHg 37%
    01:00 +37°C° 0 mm 4 mps 749 mmHg 38%
    02:00 +37°C° 0 mm 4 mps 749 mmHg 40%
    03:00 +36°C° 0 mm 4 mps 749 mmHg 42%
    04:00 +35°C° 0 mm 4 mps 749 mmHg 42%
    05:00 +35°C° 0 mm 4 mps 750 mmHg 42%
    06:00 +35°C° 0 mm 4 mps 750 mmHg 42%
    07:00 +36°C° 0 mm 4 mps 750 mmHg 36%
    08:00 +37°C° 0 mm 3 mps 750 mmHg 30%
    09:00 +39°C° 0 mm 3 mps 750 mmHg 24%
    10:00 +40°C° 0 mm 3 mps 750 mmHg 21%
    11:00 +42°C° 0 mm 3 mps 749 mmHg 19%
    12:00 +43°C° 0 mm 3 mps 749 mmHg 17%
    13:00 +43°C° 0 mm 3 mps 749 mmHg 15%
    14:00 +44°C° 0 mm 3 mps 748 mmHg 14%
    15:00 +44°C° 0 mm 4 mps 748 mmHg 12%
    16:00 +44°C° 0 mm 4 mps 748 mmHg 13%
    17:00 +44°C° 0 mm 3 mps 748 mmHg 13%
    18:00 +44°C° 0 mm 3 mps 747 mmHg 13%
    19:00 +43°C° 0 mm 3 mps 748 mmHg 14%
    20:00 +41°C° 0 mm 2 mps 748 mmHg 15%
    21:00 +40°C° 0 mm 2 mps 748 mmHg 17%
    22:00 +39°C° 0 mm 2 mps 748 mmHg 19%
    23:00 +39°C° 0 mm 2 mps 748 mmHg 21%

    26 July, Wednesday

    Time Temperature Precipitation Wind Pressure Humidity
    00:00 +38°C° 0 mm 3 mps 748 mmHg 23%
    01:00 +37°C° 0 mm 3 mps 748 mmHg 26%
    02:00 +36°C° 0 mm 4 mps 748 mmHg 30%
    03:00 +36°C° 0 mm 5 mps 748 mmHg 33%
    04:00 +35°C° 0 mm 4 mps 748 mmHg 36%
    05:00 +34°C° 0 mm 4 mps 749 mmHg 38%
    06:00 +33°C° 0 mm 4 mps 749 mmHg 40%
    07:00 +34°C° 0 mm 4 mps 749 mmHg 39%
    08:00 +35°C° 0 mm 4 mps 749 mmHg 37%
    09:00 +36°C° 0 mm 4 mps 750 mmHg 36%
    10:00 +37°C° 0 mm 3 mps 749 mmHg 33%
    11:00 +38°C° 0 mm 3 mps 749 mmHg 29%
    12:00 +39°C° 0 mm 2 mps 749 mmHg 25%
    13:00 +40°C° 0 mm 2 mps 748 mmHg 23%
    14:00 +41°C° 0 mm 2 mps 748 mmHg 20%
    15:00 +42°C° 0 mm 2 mps 747 mmHg 18%
    16:00 +42°C° 0 mm 2 mps 747 mmHg 17%
    17:00 +42°C° 0 mm 2 mps 747 mmHg 16%
    18:00 +43°C° 0 mm 3 mps 747 mmHg 16%
    19:00 +42°C° 0 mm 3 mps 748 mmHg 19%
    20:00 +40°C° 0 mm 3 mps 748 mmHg 22%
    21:00 +39°C° 0 mm 3 mps 749 mmHg 25%
    22:00 +38°C° 0 mm 3 mps 749 mmHg 27%
    23:00 +37°C° 0 mm 2 mps 748 mmHg 29%

    27 July, Thursday

    Time Temperature Precipitation Wind Pressure Humidity
    00:00 +37°C° 0 mm 2 mps 748 mmHg 31%
    01:00 +36°C° 0 mm 2 mps 748 mmHg 32%
    02:00 +36°C° 0 mm 2 mps 748 mmHg 33%
    03:00 +35°C° 0 mm 2 mps 748 mmHg 34%
    04:00 +35°C° 0 mm 2 mps 749 mmHg 36%
    05:00 +35°C° 0 mm 3 mps 749 mmHg 38%
    06:00 +34°C° 0 mm 3 mps 750 mmHg 40%
    07:00 +35°C° 0 mm 3 mps 750 mmHg 38%
    08:00 +36°C° 0 mm 3 mps 750 mmHg 36%
    09:00 +36°C° 0 mm 3 mps 750 mmHg 34%
    10:00 +38°C° 0 mm 3 mps 750 mmHg 30%
    11:00 +39°C° 0 mm 3 mps 750 mmHg 26%
    12:00 +40°C° 0 mm 2 mps 749 mmHg 22%
    13:00 +42°C° 0 mm 3 mps 749 mmHg 19%
    14:00 +43°C° 0 mm 4 mps 749 mmHg 16%
    15:00 +45°C° 0 mm 5 mps 749 mmHg 13%
    16:00 +45°C° 0 mm 5 mps 749 mmHg 13%
    17:00 +43°C° 0 mm 5 mps 749 mmHg 13%
    18:00 +44°C° 0 mm 6 mps 749 mmHg 13%
    19:00 +42°C° 0 mm 6 mps 750 mmHg 15%
    20:00 +41°C° 0 mm 5 mps 750 mmHg 16%
    21:00 +40°C° 0 mm 5 mps 751 mmHg 18%
    22:00 +39°C° 0 mm 5 mps 751 mmHg 20%
    23:00 +37°C° 0 mm 4 mps 751 mmHg 22%
    Show more